�������l�o���
Date,Time,MP-1(��Sv/h),MP-2(��Sv/h),MP-3(��Sv/h),MP-4(��Sv/h),MP-5(��Sv/h),MP-6(��Sv/h),MP-7(��Sv/h),MP-8(��Sv/h),����,����(m/s),���J
2018/06/13,00:00,0.846,1.198,0.828,1.512,1.036,0.467,0.813,0.778,�k�k��,1.1,��
2018/06/13,00:10,0.846,1.196,0.830,1.511,1.037,0.464,0.814,0.779,�k�k��,1.4,��
2018/06/13,00:20,0.844,1.194,0.831,1.510,1.035,0.467,0.813,0.778,�k�k��,1.2,��
2018/06/13,00:30,0.846,1.195,0.830,1.510,1.037,0.465,0.812,0.777,�k�k��,0.9,��
2018/06/13,00:40,0.846,1.196,0.829,1.512,1.035,0.465,0.813,0.778,�k�k��,2.0,��
2018/06/13,00:50,0.845,1.196,0.828,1.514,1.035,0.466,0.813,0.780,�k�k��,1.2,��
2018/06/13,01:00,0.847,1.197,0.830,1.511,1.038,0.464,0.814,0.780,-,CALM,��
2018/06/13,01:10,0.845,1.196,0.828,1.515,1.037,0.466,0.811,0.780,�k�k��,0.6,��
2018/06/13,01:20,0.845,1.196,0.828,1.511,1.036,0.465,0.814,0.779,�k�k��,0.8,��
2018/06/13,01:30,0.848,1.195,0.831,1.512,1.039,0.465,0.814,0.779,�k�k��,1.7,��
2018/06/13,01:40,0.847,1.197,0.829,1.513,1.037,0.466,0.812,0.780,�k�k��,2.0,��
2018/06/13,01:50,0.847,1.197,0.831,1.513,1.037,0.467,0.814,0.779,�k�k��,1.7,��
2018/06/13,02:00,0.844,1.199,0.829,1.515,1.037,0.466,0.814,0.779,�k�k��,1.7,��
2018/06/13,02:10,0.846,1.199,0.828,1.511,1.036,0.466,0.813,0.780,�k�k��,1.5,�L
2018/06/13,02:20,0.846,1.197,0.831,1.513,1.037,0.466,0.813,0.779,�k,2.3,�L
2018/06/13,02:30,0.846,1.195,0.830,1.513,1.036,0.464,0.814,0.780,�k�k��,0.9,��
2018/06/13,02:40,0.846,1.196,0.830,1.513,1.036,0.466,0.811,0.777,�k,0.8,��
2018/06/13,02:50,0.846,1.196,0.830,1.513,1.038,0.467,0.813,0.780,�k,0.9,��
2018/06/13,03:00,0.846,1.197,0.829,1.512,1.039,0.465,0.815,0.779,�k�k��,1.7,��
2018/06/13,03:10,0.845,1.198,0.828,1.512,1.038,0.464,0.814,0.779,�k,1.5,��
2018/06/13,03:20,0.845,1.197,0.831,1.513,1.043,0.468,0.815,0.781,�k,2.2,��
2018/06/13,03:30,0.847,1.198,0.831,1.514,1.038,0.465,0.813,0.781,�k�k��,1.5,��
2018/06/13,03:40,0.846,1.197,0.828,1.515,1.039,0.464,0.815,0.779,�k�k��,1.7,��
2018/06/13,03:50,0.847,1.197,0.831,1.514,1.040,0.467,0.815,0.780,�k�k��,3.0,��
2018/06/13,04:00,0.845,1.196,0.829,1.516,1.040,0.466,0.814,0.779,�k,2.3,��
2018/06/13,04:10,0.845,1.198,0.829,1.513,1.038,0.467,0.813,0.779,�k,2.6,��
2018/06/13,04:20,0.844,1.196,0.830,1.513,1.041,0.465,0.813,0.779,�k,2.5,��
2018/06/13,04:30,0.845,1.196,0.829,1.510,1.039,0.465,0.813,0.781,�k�k��,2.0,��
2018/06/13,04:40,0.847,1.199,0.830,1.513,1.040,0.463,0.814,0.780,�k�k��,1.2,��
2018/06/13,04:50,0.845,1.199,0.831,1.514,1.038,0.466,0.815,0.779,�k�k��,1.5,��
2018/06/13,05:00,0.845,1.197,0.829,1.515,1.038,0.466,0.814,0.780,�k,1.7,��
2018/06/13,05:10,0.846,1.198,0.832,1.513,1.041,0.465,0.813,0.779,�k�k��,1.5,��
2018/06/13,05:20,0.846,1.196,0.830,1.516,1.040,0.466,0.815,0.780,�k,2.2,��
2018/06/13,05:30,0.849,1.199,0.831,1.515,1.039,0.466,0.814,0.779,�k,3.6,��
2018/06/13,05:40,0.845,1.198,0.832,1.517,1.039,0.466,0.816,0.781,�k,2.6,��
2018/06/13,05:50,0.846,1.201,0.830,1.516,1.040,0.466,0.815,0.780,�k�k��,2.8,��
2018/06/13,06:00,0.848,1.198,0.831,1.515,1.040,0.466,0.815,0.781,�k,2.8,��
2018/06/13,06:10,0.846,1.198,0.831,1.516,1.040,0.466,0.817,0.780,�k,2.3,��
2018/06/13,06:20,0.847,1.199,0.829,1.514,1.039,0.466,0.817,0.780,�k�k��,3.5,��
2018/06/13,06:30,0.847,1.198,0.830,1.516,1.038,0.466,0.815,0.779,�k�k��,3.0,��
2018/06/13,06:40,0.846,1.198,0.831,1.515,1.041,0.466,0.818,0.781,�k�k��,3.3,��
2018/06/13,06:50,0.847,1.196,0.830,1.516,1.040,0.465,0.816,0.781,�k�k��,3.4,��
2018/06/13,07:00,0.847,1.199,0.830,1.516,1.039,0.464,0.816,0.781,�k�k��,2.3,��
2018/06/13,07:10,0.848,1.196,0.831,1.517,1.038,0.462,0.814,0.780,�k��,2.3,��
2018/06/13,07:20,0.848,1.199,0.831,1.520,1.040,0.464,0.815,0.782,���k��,1.5,��
2018/06/13,07:30,0.847,1.197,0.833,1.519,1.041,0.463,0.815,0.782,���k��,2.2,��
2018/06/13,07:40,0.846,1.199,0.834,1.518,1.043,0.464,0.814,0.780,��,2.3,��
2018/06/13,07:50,0.847,1.201,0.832,1.518,1.042,0.463,0.815,0.779,���쓌,2.3,��
2018/06/13,08:00,0.845,1.203,0.831,1.519,1.042,0.463,0.817,0.779,���k��,1.5,��
2018/06/13,08:10,0.843,1.198,0.832,1.517,1.045,0.462,0.815,0.776,��,2.5,��
2018/06/13,08:20,0.844,1.202,0.832,1.520,1.043,0.464,0.815,0.778,��,2.3,��
2018/06/13,08:30,0.845,1.203,0.832,1.520,1.044,0.464,0.816,0.780,��,2.9,��
2018/06/13,08:40,0.846,1.206,0.830,1.521,1.042,0.464,0.817,0.780,�쓌,2.9,��
2018/06/13,08:50,0.848,1.206,0.832,1.521,1.042,0.464,0.815,0.780,�쓌,3.5,��
2018/06/13,09:00,0.852,1.206,0.832,1.521,1.044,0.464,0.816,0.781,�쓌,3.1,��
2018/06/13,09:10,0.851,1.205,0.831,1.520,1.047,0.464,0.816,0.779,�쓌,2.8,��
2018/06/13,09:20,0.854,1.203,0.834,1.522,1.047,0.465,0.819,0.781,�쓌,3.2,��
2018/06/13,09:30,0.858,1.207,0.831,1.522,1.047,0.467,0.819,0.778,�쓌,4.2,��
2018/06/13,09:40,0.859,1.208,0.829,1.525,1.046,0.465,0.816,0.780,�쓌,3.9,��
2018/06/13,09:50,0.859,1.211,0.833,1.524,1.047,0.466,0.818,0.781,�쓌,3.7,��
2018/06/13,10:00,0.857,1.209,0.835,1.523,1.049,0.465,0.818,0.781,�쓌,4.1,��
2018/06/13,10:10,0.860,1.210,0.835,1.521,1.050,0.468,0.819,0.780,�쓌,4.8,��
2018/06/13,10:20,0.859,1.211,0.834,1.527,1.052,0.467,0.819,0.780,�쓌,4.4,��
2018/06/13,10:30,0.857,1.213,0.834,1.525,1.051,0.465,0.820,0.780,���쓌,3.5,��
2018/06/13,10:40,0.861,1.213,0.835,1.525,1.052,0.467,0.819,0.781,��쓌,4.3,��
2018/06/13,10:50,0.860,1.209,0.836,1.526,1.055,0.466,0.820,0.781,��쓌,3.6,��
2018/06/13,11:00,0.860,1.210,0.835,1.526,1.051,0.467,0.819,0.780,�쓌,4.5,��
2018/06/13,11:10,0.863,1.214,0.835,1.523,1.052,0.470,0.819,0.781,��쓌,3.8,��
2018/06/13,11:20,0.861,1.213,0.836,1.524,1.053,0.469,0.820,0.781,��쓌,4.8,��
2018/06/13,11:30,0.862,1.218,0.835,1.521,1.055,0.468,0.819,0.781,�쓌,4.2,��
2018/06/13,11:40,0.863,1.215,0.839,1.523,1.056,0.468,0.820,0.782,��쓌,5.1,��
2018/06/13,11:50,0.863,1.218,0.837,1.526,1.055,0.469,0.821,0.783,��쓌,5.1,��
2018/06/13,12:00,0.862,1.220,0.838,1.525,1.048,0.468,0.818,0.783,��쓌,5.3,��
2018/06/13,12:10,0.862,1.219,0.836,1.524,1.046,0.471,0.820,0.781,��쓌,4.8,��
2018/06/13,12:20,0.862,1.219,0.839,1.525,1.054,0.470,0.822,0.782,�쓌,4.4,��
2018/06/13,12:30,0.861,1.217,0.837,1.527,1.056,0.469,0.821,0.782,�쓌,5.9,��
2018/06/13,12:40,0.859,1.218,0.841,1.529,1.056,0.471,0.822,0.782,��쓌,5.8,��
2018/06/13,12:50,0.861,1.221,0.838,1.526,1.059,0.470,0.822,0.783,��쓌,5.5,��
2018/06/13,13:00,0.859,1.219,0.840,1.528,1.058,0.471,0.821,0.783,��쓌,5.9,��
2018/06/13,13:10,0.861,1.223,0.837,1.526,1.059,0.471,0.823,0.781,��쓌,5.0,��
2018/06/13,13:20,0.861,1.222,0.838,1.528,1.060,0.472,0.821,0.784,��쓌,5.4,��
2018/06/13,13:30,0.861,1.222,0.838,1.528,1.057,0.470,0.821,0.783,�쓌,5.1,��
2018/06/13,13:40,0.861,1.224,0.841,1.530,1.058,0.471,0.821,0.783,�쓌,4.8,��
2018/06/13,13:50,0.861,1.222,0.839,1.528,1.061,0.471,0.822,0.784,�쓌,4.6,��
2018/06/13,14:00,0.864,1.222,0.841,1.529,1.059,0.470,0.820,0.784,�쓌,3.8,��
2018/06/13,14:10,0.862,1.225,0.841,1.531,1.060,0.471,0.821,0.785,�쓌,3.7,��
2018/06/13,14:20,0.864,1.225,0.841,1.530,1.062,0.471,0.820,0.783,�쓌,3.0,��
2018/06/13,14:30,0.864,1.225,0.841,1.532,1.063,0.471,0.821,0.783,�쓌,3.2,��
2018/06/13,14:40,0.865,1.223,0.841,1.530,1.063,0.471,0.819,0.783,���쓌,2.3,��
2018/06/13,14:50,0.866,1.226,0.842,1.529,1.062,0.471,0.822,0.784,�쓌,4.0,��
2018/06/13,15:00,0.866,1.226,0.842,1.531,1.062,0.470,0.820,0.784,�쓌,2.2,��
2018/06/13,15:10,0.865,1.225,0.843,1.533,1.061,0.473,0.823,0.783,���쓌,1.5,��
2018/06/13,15:20,0.866,1.226,0.842,1.533,1.064,0.471,0.823,0.784,���k��,2.0,��
2018/06/13,15:30,0.864,1.227,0.843,1.533,1.062,0.472,0.824,0.784,�k��,2.9,��
2018/06/13,15:40,0.865,1.225,0.844,1.531,1.063,0.473,0.824,0.784,�k�k��,2.0,��
2018/06/13,15:50,0.867,1.227,0.843,1.534,1.066,0.472,0.824,0.783,���k��,2.9,��
2018/06/13,16:00,0.866,1.226,0.843,1.534,1.063,0.471,0.824,0.786,���k��,4.2,��
2018/06/13,16:10,0.867,1.228,0.842,1.536,1.064,0.472,0.824,0.784,��,8.4,��
2018/06/13,16:20,0.869,1.227,0.844,1.538,1.066,0.473,0.823,0.784,���k��,6.7,��
2018/06/13,16:30,0.867,1.228,0.844,1.537,1.068,0.473,0.826,0.785,��,8.8,��
2018/06/13,16:40,0.867,1.226,0.844,1.537,1.065,0.472,0.826,0.786,��,8.6,��
2018/06/13,16:50,0.868,1.227,0.844,1.537,1.065,0.472,0.825,0.785,��,9.1,��
2018/06/13,17:00,0.867,1.229,0.846,1.538,1.065,0.472,0.823,0.785,��,9.5,��
2018/06/13,17:10,0.867,1.229,0.846,1.537,1.063,0.472,0.824,0.786,��,6.9,��
2018/06/13,17:20,0.867,1.230,0.845,1.542,1.062,0.472,0.824,0.785,��,8.0,��
2018/06/13,17:30,0.869,1.228,0.846,1.541,1.064,0.472,0.823,0.785,��,7.0,��
2018/06/13,17:40,0.866,1.228,0.846,1.542,1.065,0.473,0.823,0.786,���k��,6.2,��
2018/06/13,17:50,0.867,1.228,0.847,1.542,1.065,0.473,0.824,0.786,���k��,6.0,��
2018/06/13,18:00,0.868,1.230,0.847,1.541,1.067,0.474,0.823,0.787,���k��,8.0,��
2018/06/13,18:10,0.867,1.231,0.845,1.543,1.065,0.473,0.824,0.787,��,6.4,��
2018/06/13,18:20,0.867,1.233,0.844,1.539,1.066,0.471,0.824,0.786,��,7.9,��
2018/06/13,18:30,0.866,1.232,0.848,1.543,1.066,0.471,0.822,0.787,��,7.3,��
2018/06/13,18:40,0.867,1.232,0.847,1.543,1.069,0.471,0.822,0.787,��,8.8,��
2018/06/13,18:50,0.867,1.232,0.846,1.542,1.068,0.473,0.822,0.787,��,8.5,��
2018/06/13,19:00,0.866,1.232,0.845,1.545,1.067,0.473,0.823,0.788,��,8.0,��
2018/06/13,19:10,0.869,1.232,0.845,1.542,1.070,0.473,0.823,0.786,��,6.7,��
2018/06/13,19:20,0.870,1.232,0.845,1.542,1.071,0.473,0.824,0.789,��,5.9,��
2018/06/13,19:30,0.868,1.233,0.848,1.544,1.067,0.474,0.822,0.787,���k��,7.6,��
2018/06/13,19:40,0.869,1.232,0.850,1.547,1.068,0.473,0.823,0.791,���k��,6.0,��
2018/06/13,19:50,0.869,1.230,0.849,1.548,1.068,0.473,0.822,0.790,���k��,5.3,��
2018/06/13,20:00,0.869,1.234,0.850,1.550,1.069,0.474,0.825,0.788,���k��,5.5,��
2018/06/13,20:10,0.867,1.233,0.850,1.548,1.070,0.473,0.826,0.788,���k��,5.5,��
2018/06/13,20:20,0.869,1.234,0.849,1.549,1.068,0.473,0.826,0.787,�k��,4.5,��
2018/06/13,20:30,0.867,1.232,0.848,1.547,1.071,0.472,0.827,0.789,���k��,2.9,��
2018/06/13,20:40,0.866,1.237,0.847,1.549,1.068,0.473,0.824,0.786,�k��,2.5,��
2018/06/13,20:50,0.866,1.232,0.847,1.548,1.070,0.475,0.825,0.788,�k��,3.8,��
2018/06/13,21:00,0.867,1.230,0.849,1.547,1.068,0.473,0.826,0.788,�k�k��,4.2,��
2018/06/13,21:10,0.865,1.234,0.849,1.548,1.068,0.473,0.826,0.787,�k,2.9,��
2018/06/13,21:20,0.867,1.233,0.849,1.548,1.069,0.473,0.823,0.787,�k�k��,4.1,��
2018/06/13,21:30,0.866,1.232,0.849,1.548,1.069,0.472,0.825,0.787,�k,4.5,��
2018/06/13,21:40,0.865,1.229,0.850,1.549,1.069,0.473,0.825,0.786,�k�k��,6.2,��
2018/06/13,21:50,0.863,1.234,0.848,1.547,1.071,0.472,0.826,0.787,�k,5.0,��
2018/06/13,22:00,0.866,1.230,0.847,1.547,1.070,0.472,0.824,0.788,�k,4.7,��
2018/06/13,22:10,0.866,1.230,0.847,1.547,1.069,0.471,0.825,0.787,�k�k��,3.5,��
2018/06/13,22:20,0.865,1.233,0.849,1.549,1.069,0.472,0.826,0.787,�k,4.2,��
2018/06/13,22:30,0.865,1.232,0.848,1.548,1.070,0.471,0.825,0.786,�k,5.1,��
2018/06/13,22:40,0.865,1.232,0.848,1.547,1.069,0.472,0.824,0.787,�k,5.6,��
2018/06/13,22:50,0.863,1.230,0.848,1.546,1.069,0.470,0.824,0.786,�k,6.1,��
2018/06/13,23:00,0.865,1.233,0.849,1.549,1.069,0.470,0.825,0.787,�k�k��,6.8,��
2018/06/13,23:10,0.866,1.230,0.846,1.549,1.069,0.471,0.826,0.787,�k,6.6,��
2018/06/13,23:20,0.865,1.233,0.847,1.548,1.070,0.471,0.826,0.787,�k,7.2,��
2018/06/13,23:30,0.864,1.231,0.849,1.547,1.072,0.472,0.825,0.787,�k,6.7,��
2018/06/13,23:40,0.866,1.232,0.849,1.547,1.070,0.470,0.825,0.788,�k,7.3,��
2018/06/13,23:50,0.865,1.232,0.846,1.547,1.068,0.470,0.826,0.788,�k,6.4,��
